Notices

What’s New in latest Release from January 14th 2021:

·       In Historical Hourly Data Report, users can switch between Local Standard Time (LST) and Universal Time Coordinates (UTC) time.

·       In Historical Hourly Data Report, we have an addition of a new column to display hourly precipitation data for the stations where the data are available, from 2001 onwards.

·       Expanded the Search Options of the Canadian Historical Weather Radar, users now able to select 24 hours (1 image every hour) image viewing duration.

Please note that the IDF dataset is available through this link: Intensity-Duration-Frequency (IDF) Files .

Hourly Data Report for January 15, 2021

CORAL HARBOUR A
NUNAVUT
Current Station Operator: NAVCAN

64°11'36.000" N
83°21'34.000" W
62.20 m
2301002
71915
YZS

Download Data

Hourly Data (January 2021)
Hourly Data Report for January 15, 2021
TIME
LST
Temp Definition
°C
Dew Point Definition
°C
Rel Hum Definition
%
Precip. Amount Definition
mm

Wind Dir Definition
10's deg

Wind Spd Definition
km/h
Visibility Definition
km
Stn Press Definition
kPa
Hmdx Definition


Wind Chill Definition


Weather Definition


00:00 -21.5 -23.8 82   32 27 16.1 99.54   -34 Snow,Blowing Snow
01:00 -24.2 -26.7 80   28 25 24.1 99.54   -37 Snow
02:00 -25.7 -28.3 79   31 13 19.3 99.60   -35 Snow
03:00 -25.2 -27.8 79   27 23 19.3 99.58   -38 Snow
04:00 -26.8 -29.4 78   31 19 19.3 99.56   -39 Snow
05:00 -27.1 -29.8 78   28 23 19.3 99.50   -40 Snow
06:00 -28.6 -31.6 77   28 31 24.1 99.44   -44 Snow
07:00 -28.3 -31.1 77   28 22 19.3 99.44   -42 Snow
08:00 -27.7 -30.5 77   27 27 19.3 99.40   -42 Snow
09:00 -26.9 -29.6 78   3 12 24.1 99.41   -36 Snow
10:00 -26.3 -29.0 78   1 3 24.1 99.36   -29 Mostly Cloudy
11:00 -24.8 -27.4 79   30 16 9.7 99.31   -35 LegendNANA
12:00 -25.2 -27.9 79   1 22 16.1 99.27   -38 LegendNANA
13:00 -24.3 -26.9 80   30 33 3.2 99.20   -39 Blowing Snow
14:00 -22.6 -25.0 81   35 19 9.7 99.23   -33 LegendNANA
15:00 -22.5 -24.9 81   4 7 12.9 99.24   -29 Snow
16:00 -22.4 -24.9 81   33 35 9.7 99.18   -37 Snow
17:00 -21.9 -24.3 81   33 37 9.7 99.19   -36 Snow,Blowing Snow
18:00 -20.8 -23.1 82   31 25 19.3 99.21   -33 Snow
19:00 -21.1 -23.4 82   30 16 24.1 99.21   -31 Snow
20:00 -20.4 -22.7 83   33 16 19.3 99.19   -30 Snow
21:00 -22.2 -24.7 81   29 10 16.1 99.19   -30 Snow
22:00 -25.0 -27.7 78   36 9 16.1 99.18   -33 Snow
23:00 -22.6 -25.1 81   35 5 19.3 99.19   -27 Snow

Notes on Data Quality.

Legend

  • E = Estimated
  • M = Missing
  • NA = Not Available*
  • [empty] = Indicates an unobserved value
Date modified: